Location: Borovka
(49.7741°N, 14.5280°E)
Time: 02:31:34
(UTC+00:00)

BlueWalker 3 - Pass Details

Date: 28 January 2026
Orbit: 451 x 461 km, 53.2° (Epoch: 13 February)

Event Time Altitude Azimuth Distance (km) Brightness Sun altitude
Rises 18:04:49 0° 276° (W) 2,458 6.9 -21.7°
Reaches altitude 10° 18:07:01 10° 283° (WNW) 1,585 5.5 -22.0°
Enters shadow 18:10:01 43° 333° (NNW) 644 2.6 -22.5°
